STARLINK-34341 (64161 NORAD) Tracking and Keplerian Element Data

This shows tracking and keplerian element data for the satellite.

Feedback or suggestion? Click here.




ElementValue
Catalog64161
NameSTARLINK-34341
Epoch Orbit3133
Epoch Day354.0960939
Epoch Year2025
RAAN43.0947
Inclination97.6032
Eccentricity8.77E-05
Argument of Perigee93.2828
Mean Anonmoly266.8499
Mean Motion15.05651453
Decay Rate2.899E-05
L11 64161U 25112R 25354.09609390 .00002899 00000+0 20501-3 0 9992
L22 64161 97.6032 43.0947 0000877 93.2828 266.8499 15.05651453 31337



Live tracking and technical data element details for STARLINK-34341 (NORAD 64161). STARLINK-34341 can be tracked NOW for your location showing map with azimuth and elevation plus other details from your city location.







IsCatalogInMostPopularTable: catalog: 64161, numindb: 4
Update: records affected: 1



GetName: 64161 STARLINK-34341

Hit Count: updated at: Tue, 10 Feb 2026 03:29:47 GMT